Tracking 17154 objects as of 2-August-2015
HD Live streaming from Space Station

MERIDIAN 3

Track MERIDIAN 3 now!
MERIDIAN 3 is classified as:


NORAD ID: 37212
Int'l Code: 2010-058A
Perigee: 2,244.5 km
Apogee: 38,126.8 km
Inclination: 62.9 °
Period: 717.8 minutes
Semi major axis: 26556 km
RCS: 24.3984 m2 (large)
Launch date: November 2, 2010
Source: Commonwealth of Independent States (former USSR) (CIS)

MERIDIAN 3 is a Russian military communications satellite.
Your satellite tracking list
Your tracking list is empty





NASA's NSSDC Master Catalog

Two Line Element Set (TLE):
1 37212U 10058A   15213.72262119  .00000170  00000-0  10000-3 0  9993
2 37212 062.8840 151.4800 6755794 274.8215 266.8496 02.00605568 34769

Source of the keplerian elements: AFSPC

N2YO: 338